Weather History for KUES - December, 2012

Change the Weather History Date:

Thursday, December 6, 2012

  Actual Average Record
Temperature  
Mean Temperature 36 °F -  
Max Temperature 41 °F 33 °F 60 °F (2001)
Min Temperature 30 °F 20 °F -5 °F (1972)
Degree Days  
Heating Degree Days 30    
Moisture  
Dew Point 32 °F    
Average Humidity 82    
Maximum Humidity 87    
Minimum Humidity 75    
Precipitation  
Precipitation 0.00 in - - ()
Sea Level Pressure  
Sea Level Pressure 30.00 in    
Wind  
Wind Speed 9 mph (South)    
Max Wind Speed 17 mph    
Max Gust Speed 16 mph    
Visibility 10 miles    
Events      
Averages and records for this station are not official NWS values.
T = Trace of Precipitation, MM = Missing Value Source: NWS Daily Summary

Daily Weather History Graph

Daily Weather History Graph

Search for Another Location

Airport or City:

Trip Planner

Search our weather history database for the weather conditions in past years. The results will help you decide how hot, cold, wet, or windy it might be!

Date:

Astronomy

Dec. 06, 2012 Rise Set
Actual Time 7:10 AM CST 4:18 PM CST
Civil Twilight 6:38 AM CST 4:50 PM CST
Nautical Twilight 6:02 AM CST 5:25 PM CST
Astronomical Twilight 5:28 AM CST 6:00 PM CST
Moon No Moon Rise 11:53 AM CST (12/6)
Length of Visible Light 10h 12m
Length of Day
9h 07m
Waning Gibbous, 49% of the Moon is Illuminated
Dec 6
Waning Gibbous
Dec 13
New
Dec 19
First Quarter
Dec 28
Full
Jan 4
Last Quarter

Hourly Weather History & Observations

Time (CST) Temp. Windchill Dew Point Humidity Pressure Visibility Wind Dir Wind Speed Gust Speed Precip Events Conditions
12:15 AM 32.0 °F 24.8 °F 28.4 °F 87% 30.20 in 10.0 mi SSE 8.1 mph - N/A   Scattered Clouds
12:35 AM 32.0 °F 25.6 °F 28.4 °F 87% 30.19 in 10.0 mi South 6.9 mph - N/A   Clear
12:55 AM 32.0 °F 23.0 °F 28.4 °F 87% 30.18 in 10.0 mi SSE 11.5 mph - N/A   Scattered Clouds
1:15 AM 32.0 °F 24.2 °F 28.4 °F 87% 30.18 in 10.0 mi SSE 9.2 mph - N/A   Scattered Clouds
1:35 AM 32.0 °F 24.2 °F 28.4 °F 87% 30.18 in 10.0 mi South 9.2 mph - N/A   Clear
1:55 AM 32.0 °F 24.2 °F 28.4 °F 87% 30.18 in 10.0 mi South 9.2 mph - N/A   Clear
2:15 AM 32.0 °F 23.0 °F 28.4 °F 87% 30.17 in 10.0 mi SSE 11.5 mph 16.1 mph N/A   Scattered Clouds
2:35 AM 32.0 °F 23.6 °F 28.4 °F 87% 30.16 in 10.0 mi SSE 10.4 mph - N/A   Clear
2:55 AM 32.0 °F 23.6 °F 28.4 °F 87% 30.15 in 10.0 mi SSE 10.4 mph - N/A   Scattered Clouds
3:15 AM 32.0 °F 23.6 °F 28.4 °F 87% 30.15 in 10.0 mi SSE 10.4 mph - N/A   Clear
5:45 AM 30.2 °F 23.4 °F 26.6 °F 86% 30.10 in 10.0 mi SE 6.9 mph - N/A   Overcast
6:50 AM 30.2 °F 23.4 °F 26.6 °F 86% 30.09 in 10.0 mi SSE 6.9 mph - N/A   Scattered Clouds
7:45 AM 32.0 °F 24.2 °F 26.6 °F 80% 30.08 in 10.0 mi SSE 9.2 mph - N/A   Overcast
8:45 AM 32.0 °F 23.0 °F 28.4 °F 87% 30.05 in 10.0 mi SSE 11.5 mph - N/A   Overcast
9:45 AM 33.8 °F 23.5 °F 28.4 °F 81% 30.03 in 10.0 mi South 16.1 mph - N/A   Mostly Cloudy
10:45 AM 35.6 °F 27.5 °F 30.2 °F 81% 30.00 in 10.0 mi South 11.5 mph - N/A   Scattered Clouds
11:45 AM 37.4 °F 29.8 °F 30.2 °F 75% 29.97 in 10.0 mi South 11.5 mph - N/A   Mostly Cloudy
12:45 PM 39.2 °F 33.0 °F 32.0 °F 75% 29.94 in 10.0 mi SSW 9.2 mph - N/A   Mostly Cloudy
1:45 PM 39.2 °F 30.2 °F 33.8 °F 81% 29.90 in 10.0 mi South 17.3 mph - N/A   Mostly Cloudy
2:45 PM 41.0 °F 35.2 °F 33.8 °F 76% 29.89 in 10.0 mi South 9.2 mph - N/A   Overcast
3:45 PM 41.0 °F 33.9 °F 33.8 °F 76% 29.87 in 10.0 mi South 12.7 mph - N/A   Overcast
4:45 PM 41.0 °F 37.1 °F 33.8 °F 76% 29.90 in 10.0 mi SW 5.8 mph - N/A   Mostly Cloudy
5:45 PM 41.0 °F - 33.8 °F 76% 29.90 in 10.0 mi Calm Calm - N/A   Mostly Cloudy
6:45 PM 41.0 °F 36.4 °F 35.6 °F 81% 29.89 in 10.0 mi SSW 6.9 mph - N/A   Mostly Cloudy
7:45 PM 41.0 °F 35.2 °F 35.6 °F 81% 29.90 in 10.0 mi SSW 9.2 mph - N/A   Overcast
8:35 PM 41.0 °F 38.0 °F 33.8 °F 76% 29.90 in 10.0 mi SW 4.6 mph - N/A   Overcast
8:45 PM 41.0 °F 39.0 °F 35.6 °F 81% 29.90 in 10.0 mi SW 3.5 mph - N/A   Overcast
8:55 PM 41.0 °F 38.0 °F 33.8 °F 76% 29.90 in 10.0 mi SSW 4.6 mph - N/A   Overcast
9:15 PM 41.0 °F 38.0 °F 35.6 °F 81% 29.90 in 10.0 mi SSW 4.6 mph - N/A   Overcast
9:35 PM 41.0 °F 38.0 °F 35.6 °F 81% 29.90 in 10.0 mi SW 4.6 mph - N/A   Overcast
9:55 PM 41.0 °F 37.1 °F 35.6 °F 81% 29.90 in 10.0 mi SW 5.8 mph - N/A   Overcast
10:15 PM 39.2 °F 37.0 °F 33.8 °F 81% 29.90 in 10.0 mi SW 3.5 mph - N/A   Overcast
10:35 PM 39.2 °F 35.9 °F 33.8 °F 81% 29.90 in 10.0 mi SW 4.6 mph - N/A   Overcast
10:55 PM 39.2 °F 37.0 °F 35.6 °F 87% 29.91 in 10.0 mi WSW 3.5 mph - N/A   Overcast
11:15 PM 39.2 °F 35.0 °F 35.6 °F 87% 29.91 in 10.0 mi WSW 5.8 mph - N/A   Overcast
11:35 PM 39.2 °F 35.0 °F 33.8 °F 81% 29.91 in 10.0 mi West 5.8 mph - N/A   Scattered Clouds
11:55 PM 37.4 °F 32.1 °F 33.8 °F 87% 29.91 in 10.0 mi West 6.9 mph - N/A   Clear